TimeCST,TemperatureF,Dew PointF,Humidity,Sea Level PressureIn,VisibilityMPH,Wind Direction,Wind SpeedMPH,Gust SpeedMPH,PrecipitationIn,Events,Conditions,WindDirDegrees,DateUTC
12:51 AM,42.8,26.6,53,30.13,10.0,SSW,11.5,-,N/A,,Clear,200,2013-01-19 06:51:00
1:51 AM,43.0,26.1,51,30.14,10.0,SSW,11.5,-,N/A,,Clear,210,2013-01-19 07:51:00
2:51 AM,43.0,25.0,49,30.13,10.0,SSW,13.8,-,N/A,,Clear,200,2013-01-19 08:51:00
3:51 AM,43.0,25.0,49,30.11,10.0,SSW,13.8,-,N/A,,Clear,200,2013-01-19 09:51:00
4:51 AM,43.0,25.0,49,30.09,10.0,SSW,13.8,-,N/A,,Clear,210,2013-01-19 10:51:00
5:51 AM,43.0,25.0,49,30.08,10.0,SSW,13.8,-,N/A,,Clear,210,2013-01-19 11:51:00
6:51 AM,43.0,25.0,49,30.07,10.0,SSW,13.8,-,N/A,,Clear,200,2013-01-19 12:51:00
7:51 AM,43.0,25.0,49,30.07,10.0,South,12.7,-,N/A,,Clear,190,2013-01-19 13:51:00
8:51 AM,48.0,26.1,42,30.06,10.0,SSW,11.5,-,N/A,,Partly Cloudy,200,2013-01-19 14:51:00
9:51 AM,54.0,28.0,37,30.06,10.0,SW,15.0,-,N/A,,Partly Cloudy,220,2013-01-19 15:51:00
10:51 AM,57.0,28.9,34,30.02,10.0,SW,23.0,28.8,N/A,,Partly Cloudy,230,2013-01-19 16:51:00
11:51 AM,60.1,30.0,32,29.98,10.0,WSW,17.3,27.6,N/A,,Partly Cloudy,240,2013-01-19 17:51:00
12:51 PM,63.0,30.9,30,29.94,10.0,WSW,19.6,-,N/A,,Partly Cloudy,250,2013-01-19 18:51:00
1:51 PM,64.0,32.0,30,29.93,10.0,WSW,18.4,25.3,N/A,,Partly Cloudy,250,2013-01-19 19:51:00
2:51 PM,64.9,32.0,29,29.93,10.0,West,15.0,25.3,N/A,,Scattered Clouds,260,2013-01-19 20:51:00
3:51 PM,64.0,32.0,30,29.94,10.0,West,10.4,-,N/A,,Partly Cloudy,270,2013-01-19 21:51:00
4:51 PM,61.0,30.9,32,29.96,10.0,West,12.7,-,N/A,,Partly Cloudy,260,2013-01-19 22:51:00
5:51 PM,55.0,30.9,40,29.99,10.0,WSW,9.2,-,N/A,,Clear,250,2013-01-19 23:51:00
6:51 PM,53.1,30.9,43,30.02,10.0,West,8.1,-,N/A,,Clear,260,2013-01-20 00:51:00
7:51 PM,54.0,30.9,41,30.05,10.0,West,12.7,-,N/A,,Clear,270,2013-01-20 01:51:00
8:51 PM,54.0,32.0,43,30.06,10.0,West,13.8,-,N/A,,Clear,280,2013-01-20 02:51:00
9:51 PM,51.1,30.9,46,30.09,10.0,WNW,13.8,25.3,N/A,,Clear,290,2013-01-20 03:51:00
10:51 PM,46.9,30.9,54,30.12,10.0,WNW,10.4,-,N/A,,Clear,300,2013-01-20 04:51:00
11:51 PM,46.0,30.0,54,30.13,10.0,WNW,12.7,19.6,N/A,,Clear,300,2013-01-20 05:51:00